Waarnemingen

Advertentie
Mijn weer
Norderney, Duitsland (10113): temperatuur & dauwpunt: 14.08.2017 04:00:00 - 20.08.2017 04:00:00 (CEST)Norderney, Duitsland (10113): temperatuur 5cm & temperatuur -5cm: 14.08.2017 04:00:00 - 20.08.2017 04:00:00 (CEST)Norderney, Duitsland (10113): temperatuur -20cm & temperatuur -100cm: 14.08.2017 04:00:00 - 20.08.2017 04:00:00 (CEST)Norderney, Duitsland (10113): windsnelheid & windstoten: 14.08.2017 04:00:00 - 20.08.2017 04:00:00 (CEST)Norderney, Duitsland (10113): windrichting: 14.08.2017 04:00:00 - 20.08.2017 04:00:00 (CEST)Norderney, Duitsland (10113): luchtdruk: 14.08.2017 04:00:00 - 20.08.2017 04:00:00 (CEST)Norderney, Duitsland (10113): zicht: 14.08.2017 04:00:00 - 20.08.2017 04:00:00 (CEST)Norderney, Duitsland (10113): Zonneschijnduur: 14.08.2017 04:00:00 - 20.08.2017 04:00:00 (CEST)Norderney, Duitsland (10113): neerslag: 14.08.2017 04:00:00 - 20.08.2017 04:00:00 (CEST)
Datum & Tijd tt [°C] td [°C] tt 5cm [°C] tt -5cm [°C] tt -20cm [°C] tt -100cm [°C] ff [km/u] ff [kn] fx [km/u] fx [kn] dd ppp [hPa] vv [km] sd [min] rr [mm]
20.08.2017 04:00:00 14,6 11,9 13,0 14,7 16,8 18,1 23 12 44 24 ZW 1015,5 45 0 0,0
20.08.2017 03:00:00 14,9 11,9 13,1 14,9 17,1 18,1 27 15 41 22 ZW 1015,3 52 0 0,0
20.08.2017 02:00:00 14,6 11,3 12,3 15,2 17,3 18,1 20 11 37 20 ZW 1015,3 70 0 0,1
20.08.2017 01:00:00 14,1 12,2 13,1 15,4 17,5 18,1 27 14 50 27 ZW 1015,5 18 0 0,2
20.08.2017 00:00:00 15,0 11,7 13,2 15,6 17,8 18,1 26 14 40 22 ZW 1015,2 48 0 0,4
19.08.2017 23:00:00 15,0 11,8 13,6 15,9 18,2 18,1 23 12 40 22 ZW 1015,3 42 0 0,4
19.08.2017 22:00:00 13,7 10,5 12,4 16,5 18,5 18,1 26 14 57 31 ZW 1015,0 6 0 1,2
19.08.2017 21:00:00 15,1 11,6 13,7 17,2 18,9 18,1 24 13 49 26 WZW 1014,9 2,9 0 0,5
19.08.2017 20:00:00 16,0 11,7 14,3 18,1 19,2 18,2 26 14 47 25 WZW 1014,5 4,2 9 0,0
19.08.2017 19:00:00 16,2 12,0 14,9 18,9 19,5 18,2 22 12 59 32 WZW 1014,4 22 0 0,3
19.08.2017 18:00:00 16,7 10,8 16,1 20,1 19,7 18,2 29 16 55 30 W 1014,5 32 10 0,0
19.08.2017 17:00:00 17,3 11,8 16,8 20,7 19,8 18,2 29 16 45 24 W 1014,0 27 13 3,7
19.08.2017 16:00:00 15,2 12,2 14,5 22,5 19,6 18,2 26 14 56 30 WZW 1013,7 6 0 0,2
19.08.2017 15:00:00 18,5 10,3 21,5 23,6 18,9 18,2 26 14 46 25 WZW 1012,9 20 52 0,0
19.08.2017 14:00:00 18,6 11,2 23,0 22,1 18,3 18,2 27 15 42 23 WZW 1012,2 20 40 0,0
19.08.2017 13:00:00 18,1 11,8 21,9 21,2 17,7 18,2 29 16 45 24 ZW 1011,7 10 57 0,0
19.08.2017 12:00:00 17,1 12,1 20,4 19,3 17,2 18,2 27 14 42 23 ZW 1011,6 8 59 0,0
19.08.2017 11:00:00 15,5 11,3 17,8 17,5 16,8 18,2 26 14 41 22 ZW 1011,2 15 51 0,0
19.08.2017 10:00:00 14,7 10,9 16,9 15,9 16,7 18,2 27 15 46 25 ZW 1010,9 12 56 0,0
19.08.2017 09:00:00 14,1 10,5 12,9 14,9 16,8 18,2 24 13 45 24 ZZW 1010,5 57 0 0,0
19.08.2017 08:00:00 14,4 12,0 13,6 14,9 16,9 18,2 29 15 49 26 ZZW 1010,3 29 31 0,0
19.08.2017 07:00:00 14,3 12,0 13,4 14,4 17,2 18,2 25 13 42 23 ZZW 1009,8 52 10 0,0
19.08.2017 06:00:00 13,7 11,2 12,0 14,5 17,5 18,2 19 10 38 21 ZZW 1009,5 70 0 0,0
19.08.2017 05:00:00 14,0 10,4 12,0 14,9 17,8 18,2 19 10 42 23 ZZW 1009,6 70 0 0,0
19.08.2017 04:00:00 14,4 11,1 12,5 15,3 18,1 18,2 27 15 43 23 ZW 1009,5 70 0 0,0
19.08.2017 03:00:00 15,0 12,2 12,9 15,7 18,4 18,2 20 11 33 18 ZW 1009,7 62 0 0,0
19.08.2017 02:00:00 14,7 13,0 13,0 16,2 18,8 18,2 14 8 22 12 Z 1009,5 33 0 0,0
19.08.2017 01:00:00 14,1 11,9 12,0 17,0 19,1 18,2 7 4 38 20 ZZW 1009,2 63 0 1,2
19.08.2017 00:00:00 14,3 10,4 12,7 17,7 19,5 18,2 34 19 50 27 W 1009,9 3,0 0 0,9
18.08.2017 23:00:00 17,0 12,5 15,2 18,1 19,8 18,3 12 7 22 12 ZW 1009,1 70 0 0,0
18.08.2017 22:00:00 17,3 13,3 15,9 18,8 20,1 18,3 16 9 39 21 WZW 1009,4 40 0 0,0
18.08.2017 21:00:00 16,7 13,5 15,6 19,8 20,4 18,3 32 17 44 24 W 1009,3 19 8 0,0
18.08.2017 20:00:00 18,5 13,9 17,9 20,8 20,5 18,3 21 11 35 19 W 1009,0 21 37 0,0
18.08.2017 19:00:00 18,7 15,1 18,8 21,4 20,6 18,3 22 12 40 22 W 1008,8 27 0 0,0
18.08.2017 18:00:00 19,2 15,5 19,5 21,8 20,6 18,3 19 10 40 22 WZW 1008,3 25 0 0,0
18.08.2017 17:00:00 19,5 16,2 20,2 22,4 20,6 18,3 19 10 36 19 ZZW 1008,3 26 0 0,0
18.08.2017 16:00:00 20,7 14,8 21,5 23,2 20,4 18,3 19 10 29 16 ZW 1008,7 27 0 0,0
18.08.2017 15:00:00 21,1 14,6 23,4 23,9 19,9 18,3 18 10 30 16 ZZW 1009,1 17 29 0,0
18.08.2017 14:00:00 20,2 14,7 22,2 23,1 19,3 18,3 17 9 32 18 ZW 1009,5 18 41 0,0
18.08.2017 13:00:00 20,2 15,7 23,2 22,0 18,8 18,3 17 9 34 19 ZZW 1009,6 9 54 0,0
18.08.2017 12:00:00 19,1 15,8 21,9 20,4 18,4 18,3 18 10 34 18 ZZW 1010,3 12 36 0,0
18.08.2017 11:00:00 18,1 15,9 19,4 18,9 18,2 18,3 17 9 35 19 ZZW 1010,7 15 4 0,0
18.08.2017 10:00:00 17,3 15,5 17,8 17,9 18,1 18,3 21 11 35 19 Z 1010,7 11 0 0,0
18.08.2017 09:00:00 17,1 15,6 17,1 17,5 18,1 18,3 19 11 33 18 Z 1010,5 11 0 0,0
18.08.2017 08:00:00 17,1 15,6 16,9 17,2 18,2 18,3 21 12 35 19 ZW 1010,7 10 0 0,0
18.08.2017 07:00:00 17,0 15,3 16,7 17,1 18,2 18,3 19 10 34 18 ZZW 1010,8 17 0 0,0
18.08.2017 06:00:00 17,0 15,9 16,6 17,0 18,4 18,3 18 10 29 16 Z 1010,9 8 0 0,0
18.08.2017 05:00:00 17,2 15,8 16,2 17,1 18,5 18,3 17 9 33 18 ZZW 1011,1 12 0 0,0
18.08.2017 04:00:00 17,3 16,1 16,1 17,3 18,7 18,4 17 9 31 17 ZZW 1011,1 11 0 0,0
18.08.2017 03:00:00 17,5 16,5 16,4 17,6 18,8 18,4 16 9 29 16 ZZW 1011,4 9 0 0,0
18.08.2017 02:00:00 18,1 17,0 17,5 17,8 19,0 18,4 16 9 30 16 ZZW 1011,6 7 0 0,0
18.08.2017 01:00:00 18,0 17,1 17,1 18,0 19,1 18,4 17 9 31 17 Z 1011,6 6 0 0,0
18.08.2017 00:00:00 18,4 17,1 17,8 18,3 19,3 18,4 16 9 34 19 ZZW 1011,9 7 0 0,0
17.08.2017 23:00:00 18,6 17,2 17,9 18,5 19,4 18,4 19 10 36 19 ZZW 1012,1 9 0 0,0
17.08.2017 22:00:00 18,5 17,2 17,6 18,9 19,5 18,4 19 10 34 18 ZZW 1012,1 12 0 0,0
17.08.2017 21:00:00 18,3 17,2 17,7 19,1 19,6 18,3 20 11 33 18 ZZW 1012,0 9 0 0,0
17.08.2017 20:00:00 18,3 16,7 17,5 19,5 19,7 18,3 15 8 34 18 ZZW 1012,2 10 0 0,0
17.08.2017 19:00:00 18,6 15,7 18,1 19,8 19,8 18,3 21 11 36 19 ZZW 1012,2 18 0 0,0
17.08.2017 18:00:00 18,6 15,9 18,1 20,0 19,8 18,3 19 10 41 22 ZZW 1012,4 22 0 0,0
17.08.2017 17:00:00 18,5 16,0 18,2 20,1 19,7 18,3 22 12 49 26 ZZW 1012,3 17 0 0,4
17.08.2017 16:00:00 17,9 16,0 17,1 19,7 19,8 18,3 25 13 48 26 ZZW 1012,4 11 0 0,5
17.08.2017 15:00:00 18,3 16,0 17,6 19,9 19,7 18,3 18 10 31 17 ZZW 1012,6 7 0 0,6
17.08.2017 14:00:00 18,1 15,9 17,6 19,8 19,8 18,3 16 8 35 19 Z 1012,9 6 0 1,1
17.08.2017 13:00:00 18,5 15,3 16,9 20,2 19,7 18,3 23 13 37 20 Z 1013,2 4,8 0 0,2
17.08.2017 12:00:00 19,3 15,4 19,1 20,3 19,5 18,3 16 9 26 14 Z 1013,3 9 0 0,0
17.08.2017 11:00:00 18,6 14,6 19,4 19,7 19,4 18,3 15 8 24 13 ZZO 1013,4 17 0 0,0
17.08.2017 10:00:00 17,9 13,8 18,5 19,1 19,4 18,3 14 8 25 14 ZZO 1014,1 21 0 0,0
17.08.2017 09:00:00 16,8 12,7 16,9 18,5 19,5 18,3 16 9 25 14 ZZO 1014,6 20 0 0,0
17.08.2017 08:00:00 16,5 12,1 16,4 18,2 19,6 18,2 18 10 27 15 ZZO 1015,3 37 0 0,0
17.08.2017 07:00:00 16,5 12,0 15,6 18,2 19,9 18,2 16 9 28 15 ZZO 1015,6 34 0 0,0
17.08.2017 06:00:00 16,7 11,9 15,5 18,4 20,1 18,2 13 7 23 12 ZZO 1016,3 41 0 0,0
17.08.2017 05:00:00 16,9 11,9 15,5 18,7 20,4 18,2 13 7 26 14 ZZO 1016,7 44 0 0,0
17.08.2017 04:00:00 16,7 12,0 15,3 19,1 20,7 18,2 13 7 23 12 ZZO 1017,5 46 0 0,0
17.08.2017 03:00:00 15,8 12,1 14,8 19,4 21,0 18,2 15 8 24 13 ZO 1017,8 39 0 0,0
17.08.2017 02:00:00 16,2 11,8 15,8 19,7 21,3 18,2 15 8 27 15 ZO 1018,7 55 0 0,0
17.08.2017 01:00:00 16,4 11,7 15,2 20,3 21,7 18,2 16 8 26 14 ZO 1018,8 64 0 0,0
17.08.2017 00:00:00 17,3 11,8 16,2 21,0 22,0 18,1 14 8 26 14 ZO 1019,5 70 0 0,0
16.08.2017 23:00:00 17,6 11,9 16,7 21,6 22,4 18,1 13 7 20 11 ZO 1020,0 67 0 0,0
16.08.2017 22:00:00 17,9 12,1 16,4 22,4 22,8 18,1 13 7 22 12 OZO 1020,5 67 0 0,0
16.08.2017 21:00:00 18,8 11,0 17,5 23,7 23,2 18,1 15 8 25 14 OZO 1020,5 70 4 0,0
16.08.2017 20:00:00 19,9 12,0 19,6 24,9 23,4 18,1 16 9 26 14 OZO 1020,2 64 3 0,0
16.08.2017 19:00:00 20,0 12,5 20,6 26,0 23,5 18,1 15 8 26 14 OZO 1020,7 60 6 0,0
16.08.2017 18:00:00 20,7 12,6 22,6 27,1 23,4 18,1 13 7 19 11 ONO 1021,0 62 26 0,0
16.08.2017 17:00:00 20,4 13,3 22,1 28,0 23,1 18,1 10 5 11 6 NNO 1021,0 45 28 0,0
16.08.2017 16:00:00 20,4 12,5 25,4 28,7 22,5 18,1 9 5 10 5 N 1021,4 48 60 0,0
16.08.2017 15:00:00 20,8 12,5 26,7 28,1 21,8 18,1 6 3 10 6 N 1021,6 29 60 0,0
16.08.2017 14:00:00 21,0 13,0 29,1 27,2 20,9 18,1 8 5 13 7 NW 1021,7 31 60 0,0
16.08.2017 13:00:00 19,8 13,6 27,0 25,5 20,1 18,1 10 5 13 7 WNW 1021,7 20 60 0,0
16.08.2017 12:00:00 19,9 13,7 26,6 23,5 19,5 18,1 10 6 15 8 WNW 1021,7 21 60 0,0
16.08.2017 11:00:00 19,8 14,8 24,8 21,4 19,0 18,1 11 6 16 9 W 1021,5 22 60 0,0
16.08.2017 10:00:00 19,2 14,3 22,5 19,4 18,8 18,1 10 6 18 10 W 1021,0 36 57 0,0
16.08.2017 09:00:00 18,4 14,2 19,1 18,1 18,9 18,1 16 9 21 11 WNW 1020,7 45 44 0,0
16.08.2017 08:00:00 17,8 14,1 16,7 17,5 19,0 18,0 20 11 25 14 WNW 1020,4 29 44 0,0
16.08.2017 07:00:00 17,6 14,2 15,8 17,6 19,3 18,0 16 9 24 13 NW 1019,6 23 3 0,0
16.08.2017 06:00:00 17,6 14,3 16,1 17,8 19,5 18,0 19 10 23 13 NW 1018,9 29 0 0,0
16.08.2017 05:00:00 17,5 14,2 15,6 18,2 19,8 18,0 21 12 25 14 NW 1018,5 25 0 0,0
16.08.2017 04:00:00 17,4 14,4 15,8 18,6 20,0 18,0 21 11 30 16 NW 1018,2 29 0 0,0
16.08.2017 03:00:00 18,0 15,1 16,8 19,1 20,3 18,0 28 15 34 18 WNW 1017,6 30 0 0,0
16.08.2017 02:00:00 18,3 15,3 17,1 19,4 20,6 18,0 25 13 29 16 WNW 1017,3 19 0 0,0
16.08.2017 01:00:00 18,5 16,0 17,1 20,0 20,8 18,0 23 12 27 14 WNW 1016,9 22 0 0,0
16.08.2017 00:00:00 18,7 16,6 17,5 20,6 21,0 18,0 20 11 29 16 WNW 1016,6 21 0 0,2
15.08.2017 23:00:00 19,1 16,5 17,9 21,0 21,3 18,0 7 4 10 5 W 1016,1 12 0 0,0
15.08.2017 22:00:00 19,1 16,6 17,7 21,7 21,5 18,0 7 4 15 8 NNW 1015,3 11 0 0,0
15.08.2017 21:00:00 19,2 16,7 19,0 22,4 21,6 18,0 15 8 19 11 NNW 1014,8 9 0 0,0
15.08.2017 20:00:00 19,6 17,5 20,3 23,0 21,7 18,0 12 6 15 8 NW 1014,3 8 13 0,0
15.08.2017 19:00:00 19,5 17,6 20,1 23,2 21,8 18,0 6 3 16 8 N 1014,1 6 0 0,0
15.08.2017 18:00:00 19,9 17,2 20,8 24,0 21,8 18,0 12 6 21 11 NW 1014,4 8 0 0,0
15.08.2017 17:00:00 20,5 17,2 22,2 24,9 21,6 17,9 14 7 16 9 NW 1014,1 10 6 0,0
15.08.2017 16:00:00 21,8 15,5 25,4 24,4 21,4 17,9 6 3 15 8 N 1014,0 19 0 0,0
15.08.2017 15:00:00 20,9 16,5 22,8 25,0 21,1 17,9 16 9 16 9 N 1013,4 12 0 0,0
15.08.2017 14:00:00 22,2 17,4 25,7 25,6 20,5 17,9 7 4 19 11 NW 1014,0 10 28 0,0
15.08.2017 13:00:00 22,8 17,0 26,7 24,6 19,9 17,9 11 6 28 15 ZW 1014,2 12 54 0,0
15.08.2017 12:00:00 22,2 17,3 24,5 23,2 19,3 17,9 17 9 29 16 ZW 1014,8 16 38 0,0
15.08.2017 11:00:00 22,0 16,4 25,5 21,3 18,8 17,9 10 6 21 11 Z 1014,1 20 56 0,0
15.08.2017 10:00:00 20,8 16,0 23,6 19,4 18,6 17,9 16 9 22 12 ZZO 1013,8 19 42 0,0
15.08.2017 09:00:00 18,7 14,7 18,7 18,4 18,5 17,9 16 9 24 13 ZZO 1014,4 20 23 0,0
15.08.2017 08:00:00 17,8 14,1 17,9 17,6 18,6 17,9 15 8 21 11 ZZO 1014,3 22 25 0,0
15.08.2017 07:00:00 17,0 14,2 16,3 17,3 18,8 17,9 14 7 19 11 ZZO 1014,8 19 0 0,0
15.08.2017 06:00:00 16,9 14,2 15,5 17,5 19,0 17,9 13 7 18 10 ZO 1015,0 20 0 0,0
15.08.2017 05:00:00 17,1 14,3 15,6 17,7 19,2 17,9 13 7 17 9 ZO 1015,4 22 0 0,0
15.08.2017 04:00:00 16,8 14,3 15,2 18,1 19,5 17,9 10 6 19 11 ZO 1015,8 23 0 0,0
15.08.2017 03:00:00 17,2 13,6 15,9 18,5 19,8 17,9 15 8 24 13 ZO 1016,2 29 0 0,0
15.08.2017 02:00:00 17,7 13,7 16,4 18,9 20,1 17,9 16 9 24 13 OZO 1016,7 31 0 0,0
15.08.2017 01:00:00 18,2 13,6 16,6 19,4 20,4 17,9 11 6 24 13 OZO 1017,4 41 0 0,0
15.08.2017 00:00:00 18,2 13,5 17,4 19,7 20,7 17,9 11 6 24 13 O 1018,1 41 0 0,0
14.08.2017 23:00:00 18,4 13,4 16,9 20,4 21,1 17,9 13 7 23 12 O 1018,6 48 0 0,0
14.08.2017 22:00:00 18,7 13,2 17,2 21,2 21,5 17,9 14 7 26 14 O 1019,0 67 0 0,0
14.08.2017 21:00:00 19,3 11,5 17,9 22,4 21,8 17,9 14 8 27 14 O 1018,9 70 5 0,0
14.08.2017 20:00:00 20,0 10,7 19,2 23,9 22,0 17,9 15 8 29 16 O 1019,1 60 58 0,0
14.08.2017 19:00:00 21,0 10,3 21,8 25,4 22,0 17,9 17 9 31 17 O 1019,5 30 60 0,0
14.08.2017 18:00:00 21,5 9,5 24,0 26,7 21,6 17,9 19 10 33 18 OZO 1020,0 20 60 0,0
14.08.2017 17:00:00 21,4 9,1 25,2 27,2 21,1 17,9 17 9 32 18 OZO 1020,4 15 60 0,0
14.08.2017 16:00:00 21,8 9,2 25,9 26,9 20,3 17,9 19 11 32 18 OZO 1020,9 14 59 0,0
14.08.2017 15:00:00 21,7 8,8 26,7 26,1 19,4 18,0 15 8 26 14 OZO 1021,3 13 60 0,0
14.08.2017 14:00:00 21,3 7,9 26,1 24,6 18,5 18,0 16 9 28 15 OZO 1021,9 11 60 0,0
14.08.2017 13:00:00 20,1 8,2 24,6 22,7 17,6 18,0 16 9 28 15 ZO 1022,4 9 60 0,0
14.08.2017 12:00:00 19,4 8,9 23,7 20,5 16,9 18,0 16 9 29 15 ZO 1022,7 12 59 0,0
14.08.2017 11:00:00 17,4 10,2 20,7 18,3 16,4 18,0 19 11 29 15 ZO 1023,0 9 60 0,0
14.08.2017 10:00:00 16,5 10,3 19,2 16,3 16,1 18,0 14 8 28 15 ZO 1023,2 15 60 0,0
14.08.2017 09:00:00 14,8 9,9 16,1 14,7 16,1 18,0 13 7 26 14 ZO 1023,3 42 60 0,0
14.08.2017 08:00:00 13,5 9,5 13,3 13,9 16,3 18,0 17 9 26 14 ZO 1023,0 36 60 0,0
14.08.2017 07:00:00 13,2 10,2 12,0 13,7 16,5 18,0 11 6 19 10 ZO 1022,8 60 29 0,0
14.08.2017 06:00:00 13,1 10,1 10,9 13,8 16,8 18,0 10 5 18 10 ZO 1022,7 56 0 0,0
14.08.2017 05:00:00 13,6 10,1 11,4 14,1 17,1 18,0 10 5 16 9 ZO 1022,7 52 0 0,0
14.08.2017 04:00:00 13,3 10,1 10,8 14,4 17,4 18,0 10 5 13 7 ZO 1023,0 58 0 0,0

tt = temperatuur
td = dauwpunt
tt 5cm = temperatuur 5cm
tt -5cm = temperatuur -5cm
tt -20cm = temperatuur -20cm
tt -100cm = temperatuur -100cm
ff = windsnelheid
fx = windstoten
dd = windrichting
ppp = luchtdruk
vv = zicht
sd = Zonneschijnduur
rr = neerslag

Weerstations in de omgeving